User: anonymous   Login
Location: Wildcat Hills Observatory
(41.6350°N, 103.6812°W)
Time: 21:17:34
(UTC-07:00)
Language:

Cosmos 1634 Rocket - Orbit

View from above orbital plane
View from above orbital plane
View from above satellite
View from above satellite

Ground track
Ground track

The orbit data is extracted from the following two-line orbital elements,

1 15598U 85022B   14355.22818447  .00000100  00000-0  86158-4 0  8014
2 15598 082.9374 062.7080 0023533 130.1028 282.8542 13.76503853495412
Epoch (UTC): 21 December 2014 05:28:35
Eccentricity: 0.0023533
inclination: 82.9374°
perigee height: 959 km
apogee height: 993 km
right ascension of ascending node: 62.7080°
argument of perigee: 130.1028°
revolutions per day: 13.76503853
mean anomaly at epoch: 282.8542°
orbit number at epoch: 49541

The dashed part of the orbit path shows where the satellite is in the earth's shadow,  

DLR